Location: Grandview
(34.8900°N, 117.1058°W)
Time: 14:12:33
(UTC-07:00)

Tiangong 1 - Pass Details

Date: 13 October 2017
Orbit: 292 x 320 km, 42.8° (Epoch: 22 October)

Event Time Altitude Azimuth Distance (km) Brightness Sun altitude
Rises 19:56:17 0° 301° (WNW) 2,034 5.8 -21.4°
Reaches altitude 10° 19:58:19 10° 308° (NW) 1,198 4.3 -21.8°
Enters shadow 19:59:23 20° 319° (NW) 791 3.1 -22.0°
